Weather History for KF05 - April, 2014

Change the Weather History Date:

Thursday, April 3, 2014

  Actual Average (KLTS) Record (KLTS)
Temperature  
Mean Temperature 66 °F -  
Max Temperature 82 °F 68 °F 101 °F (2011)
Min Temperature 49 °F 44 °F 30 °F (2009)
Cooling Degree Days 1    
Growing Degree Days 16 (Base 50)    
Moisture  
Dew Point 43 °F    
Average Humidity 45    
Maximum Humidity 85    
Minimum Humidity 9    
Precipitation  
Precipitation 0.00 in - - ()
Sea Level Pressure  
Sea Level Pressure 29.70 in    
Wind  
Wind Speed 12 mph (West)    
Max Wind Speed 31 mph    
Max Gust Speed 39 mph    
Visibility 9 miles    
Events      
Averages and records for this station are not official NWS values.
T = Trace of Precipitation, MM = Missing Value Source: NWS Daily Summary

Daily Weather History Graph

Daily Weather History Graph

Search for Another Location

Airport or City:

Trip Planner

Search our weather history database for the weather conditions in past years. The results will help you decide how hot, cold, wet, or windy it might be!

Date:

Astronomy

Apr. 03, 2014 Rise Set
Actual Time 7:21 AM CDT 7:59 PM CDT
Civil Twilight 6:56 AM CDT 8:24 PM CDT
Nautical Twilight 6:26 AM CDT 8:54 PM CDT
Astronomical Twilight 5:56 AM CDT 9:25 PM CDT
Moon 10:00 AM CDT (4/3) No Moon Set
Length of Visible Light 13h 28m
Length of Day
12h 37m
Waxing Crescent, 17% of the Moon is Illuminated
Apr 3
Waxing Crescent
Apr 7
First Quarter
Apr 15
Full
Apr 22
Last Quarter
Apr 29
New

Hourly Weather History & Observations

Time (CDT) Temp. Dew Point Humidity Pressure Visibility Wind Dir Wind Speed Gust Speed Precip Events Conditions
12:15 AM 73.9 °F 62.8 °F 68% 29.61 in 10.0 mi South 15.0 mph 26.5 mph N/A   Clear
12:35 AM 73.2 °F 62.8 °F 70% 29.61 in 10.0 mi South 12.7 mph 19.6 mph N/A   Clear
12:55 AM 72.5 °F 62.8 °F 71% 29.63 in 10.0 mi SW 8.1 mph - N/A   Clear
1:15 AM 71.8 °F 62.6 °F 73% 29.63 in 10.0 mi SW 9.2 mph - N/A   Clear
1:35 AM 70.7 °F 62.6 °F 75% 29.62 in 10.0 mi South 10.4 mph - N/A   Clear
1:55 AM 70.0 °F 62.6 °F 77% 29.61 in 10.0 mi South 8.1 mph - N/A   Clear
2:15 AM 69.4 °F 62.6 °F 79% 29.61 in 10.0 mi South 9.2 mph - N/A   Clear
2:35 AM 69.3 °F 62.2 °F 78% 29.61 in 10.0 mi South 8.1 mph - N/A   Clear
2:55 AM 69.1 °F 62.2 °F 79% 29.61 in 10.0 mi South 10.4 mph - N/A   Clear
3:15 AM 68.7 °F 62.1 °F 79% 29.60 in 7.0 mi South 6.9 mph - N/A   Clear
3:35 AM 68.0 °F 61.9 °F 81% 29.60 in 7.0 mi South 8.1 mph - N/A   Clear
3:55 AM 67.3 °F 61.7 °F 82% 29.60 in 7.0 mi SSW 9.2 mph - N/A   Clear
4:15 AM 66.6 °F 61.5 °F 84% 29.60 in 7.0 mi SSW 8.1 mph - N/A   Clear
4:35 AM 65.8 °F 61.3 °F 85% 29.60 in 7.0 mi South 9.2 mph - N/A   Clear
4:55 AM 66.0 °F 61.3 °F 85% 29.61 in 7.0 mi South 9.2 mph - N/A   Clear
5:15 AM 65.8 °F 61.3 °F 85% 29.61 in 7.0 mi SSW 5.8 mph - N/A   Clear
5:35 AM 65.5 °F 61.0 °F 85% 29.61 in 7.0 mi South 9.2 mph - N/A   Clear
5:55 AM 65.7 °F 60.6 °F 84% 29.62 in 7.0 mi South 10.4 mph - N/A   Clear
6:15 AM 66.7 °F 60.3 °F 80% 29.62 in 10.0 mi SSW 11.5 mph - N/A   Clear
6:35 AM 67.1 °F 59.2 °F 76% 29.63 in 10.0 mi SSW 12.7 mph - N/A   Clear
7:15 AM 63.9 °F 56.3 °F 76% 29.64 in 10.0 mi SW 10.4 mph - N/A   Clear
7:30 AM 62.4 °F 54.5 °F 75% 29.65 in 10.0 mi SW 9.2 mph - N/A   Clear
7:56 AM 60.8 °F 51.8 °F 72% 29.66 in 10.0 mi SW 9.2 mph - N/A   Clear
8:18 AM 60.8 °F 50.0 °F 68% 29.67 in 10.0 mi WSW 8.1 mph - N/A   Clear
8:36 AM 62.6 °F 46.4 °F 55% 29.67 in 10.0 mi WSW 8.1 mph - N/A   Clear
8:58 AM 64.4 °F 44.6 °F 49% 29.67 in 10.0 mi WSW 9.2 mph - N/A   Clear
9:36 AM 69.8 °F 37.4 °F 31% 29.67 in 10.0 mi WSW 10.4 mph - N/A   Clear
9:55 AM 70.5 °F 36.9 °F 29% 29.67 in 10.0 mi WSW 10.4 mph - N/A   Clear
10:15 AM 73.0 °F 35.4 °F 25% 29.69 in 10.0 mi West 9.2 mph - N/A   Clear
10:35 AM 76.1 °F 31.3 °F 19% 29.69 in 10.0 mi WNW 16.1 mph 21.9 mph N/A   Clear
10:55 AM 75.9 °F 30.9 °F 19% 29.70 in 10.0 mi NW 16.1 mph - N/A   Clear
11:15 AM 72.3 °F 37.2 °F 28% 29.71 in 10.0 mi NNW 17.3 mph - N/A   Clear
11:35 AM 69.3 °F 39.9 °F 34% 29.72 in 10.0 mi NNW 15.0 mph - N/A   Clear
11:55 AM 69.4 °F 41.0 °F 36% 29.73 in 10.0 mi NNW 12.7 mph - N/A   Clear
12:15 PM 70.7 °F 40.8 °F 34% 29.73 in 10.0 mi NW 10.4 mph - N/A   Clear
12:35 PM 72.5 °F 39.0 °F 30% 29.73 in 10.0 mi NW 9.2 mph 17.3 mph N/A   Clear
1:15 PM 75.6 °F 36.1 °F 24% 29.72 in 10.0 mi NW 11.5 mph 17.3 mph N/A   Clear
1:35 PM 77.0 °F 33.1 °F 20% 29.72 in 10.0 mi WNW 15.0 mph 20.7 mph N/A   Clear
1:55 PM 78.1 °F 31.6 °F 18% 29.72 in 10.0 mi WNW 12.7 mph 19.6 mph N/A   Clear
2:15 PM 78.1 °F 31.6 °F 18% 29.72 in 10.0 mi WNW 13.8 mph 18.4 mph N/A   Clear
2:35 PM 78.3 °F 32.0 °F 19% 29.71 in 10.0 mi NW 8.1 mph 11.5 mph N/A   Clear
2:55 PM 78.6 °F 31.6 °F 18% 29.71 in 10.0 mi WNW 11.5 mph - N/A   Clear
3:15 PM 79.2 °F 32.0 °F 18% 29.71 in 10.0 mi NW 12.7 mph 17.3 mph N/A   Clear
3:35 PM 80.1 °F 31.5 °F 17% 29.71 in 10.0 mi WNW 15.0 mph 20.7 mph N/A   Clear
3:55 PM 80.1 °F 29.8 °F 16% 29.70 in 10.0 mi NW 10.4 mph 17.3 mph N/A   Clear
4:15 PM 81.0 °F 28.9 °F 15% 29.69 in 10.0 mi WNW 8.1 mph - N/A   Clear
4:35 PM 81.9 °F 27.9 °F 14% 29.68 in 10.0 mi West 12.7 mph 19.6 mph N/A   Clear
4:55 PM 82.4 °F 27.1 °F 13% 29.67 in 10.0 mi WSW 13.8 mph 18.4 mph N/A   Clear
5:15 PM 82.2 °F 27.7 °F 14% 29.67 in 10.0 mi NW 8.1 mph - N/A   Clear
5:35 PM 81.9 °F 28.4 °F 14% 29.67 in 10.0 mi WNW 8.1 mph - N/A   Clear
5:55 PM 80.6 °F 28.6 °F 15% 29.66 in 10.0 mi Calm Calm - N/A   Clear
6:15 PM 81.7 °F 28.9 °F 15% 29.67 in 10.0 mi WSW 20.7 mph 28.8 mph N/A   Clear
6:35 PM 82.2 °F 23.2 °F 11% 29.70 in 7.0 mi WNW 27.6 mph 35.7 mph N/A   Clear
6:55 PM 79.7 °F 20.8 °F 11% 29.72 in 10.0 mi WNW 29.9 mph 38.0 mph N/A   Clear
7:15 PM 77.9 °F 18.5 °F 11% 29.75 in 7.0 mi WNW 25.3 mph 32.2 mph N/A   Clear
7:35 PM 76.3 °F 12.2 °F 9% 29.77 in 7.0 mi WNW 26.5 mph 34.5 mph N/A   Clear
7:55 PM - - N/A% - - North - - N/A   Unknown
8:15 PM - - N/A% 29.81 in - WNW 25.3 mph - N/A   Unknown
8:35 PM 66.2 °F 28.0 °F 24% 29.86 in 5.0 mi North 31.1 mph 38.0 mph N/A   Clear
8:55 PM 62.2 °F 32.9 °F 33% 29.89 in 10.0 mi North 28.8 mph 39.1 mph N/A   Clear
9:15 PM 60.6 °F 32.4 °F 35% 29.91 in 10.0 mi North 27.6 mph 38.0 mph N/A   Clear
9:35 PM 59.0 °F 32.2 °F 36% 29.94 in 10.0 mi North 23.0 mph 32.2 mph N/A   Clear
11:15 PM 51.1 °F 29.8 °F 44% 30.03 in 10.0 mi North 12.7 mph 34.5 mph N/A   Clear
11:35 PM 50.2 °F 29.8 °F 46% 30.06 in 10.0 mi North 16.1 mph 23.0 mph N/A   Clear
11:55 PM 49.3 °F 29.8 °F 47% 30.07 in 10.0 mi North 15.0 mph 19.6 mph N/A   Clear